{"data":{"norad_id":65678,"intl_designator":"2025-212C","name":"STARLINK-35233","alt_names":[],"object_type":"PAYLOAD","status":"ACTIVE","operator":null,"country":"US","launch_date":"2025-09-21","launch_site_code":"AFETR","launch_vehicle":null,"mission":null,"orbit_class":"UNKNOWN","rcs_meters":null,"size_class":null,"mass_kg":null,"dimensions":null,"purposes":["comms"],"wikipedia_slug":null,"has_3d_model":false,"image_url":null,"decayed_at":null,"tle_current":{"epoch":"2026-09-20T04:44:09.174624Z","epoch_age_seconds":134815,"freshness":"FRESH","line1":"1 65678U 25212C   26263.19732841  .00029464  00000+0  95606-3 0  9991","line2":"2 65678  53.1580 161.4961 0000254  80.0976 280.0054 15.31747718 57044","mean_motion":15.31747718,"eccentricity":2.54e-5,"inclination_deg":53.158,"raan_deg":161.4961,"arg_perigee_deg":80.0976,"mean_anomaly_deg":280.0054,"bstar":0.00095606,"rev_number":5704,"period_min":94.010259201183,"perigee_km":470.42379618071,"apogee_km":470.77171190621,"semimajor_km":6848.7347540435,"source":"CELESTRAK","updated_at":"2026-09-21T09:00:35.684763Z"}}}